Find Local Weather

World > North America > United States > Texas

Dallas, Texas Regional Weather

Lat: 32.79N, Lon: 96.77W
Wx Zone: TXZ119
Warning FLW WEATHER ALERT - (More Info. Click Here) Warning
Feedback
Expires:201812111000;;622158
ASUS44 KFWD 110915
RWRTX 
NORTH TEXAS HOURLY WEATHER ROUNDUP
NATIONAL WEATHER SERVICE FORT WORTH TX
300 AM CST TUE DEC 11 2018

NOTE: "FAIR" INDICATES FEW OR NO CLOUDS BELOW 12,000 FEET WITH NO
SIGNIFICANT WEATHER AND/OR OBSTRUCTIONS TO VISIBILITY.


TXZ118-119-111000-
DALLAS/FORT WORTH METROPLEX
  
CITY           SKY/WX    TMP DP  RH WIND       PRES   REMARKS
DFW AIRPORT    FAIR      38  31  76 S6        30.33S WCI  33          
DALLAS LOVE    FAIR      41  31  67 SE5       30.35S WCI  38          
FTW MEACHAM    FAIR      39  31  72 S3        30.34S                  
DAL-EXECUTIVE  FAIR      40  31  70 S3        30.34S                  
FTW-ALLIANCE   FAIR      38  30  73 SW5       30.34R WCI  34          
FTW-NAS-JRB    FAIR      40  29  64 CALM      30.35S                  
FTW-SPINKS     FAIR      36  31  81 CALM      30.36S                  
ARLINGTON      FAIR      32  31  96 CALM      30.35S                  
GRAND PRAIRIE  FAIR      38  32  78 S3        30.37S                  
ADDISON        FAIR      42  31  65 CALM      30.37S                  
MESQUITE       FAIR      33  31  94 S6        30.37R WCI  27          
LANCASTER      FAIR      34  31  90 CALM      30.37S                  
$$


SKY/WX - Weather  TMP - Temperature  DP - Dew Point  RH - Relative Humidity
WIND - Wind Direction/Speed PRES - Barometric Pressure